Tarawa Terrace, NC

7:11 PM EDT on September 28, 2016 (GMT -0400)
New River Marine Corps Air Station

Weather History for KNCA - November, 2011

Change the Weather History Date:

Thursday, November 10, 2011

  Actual Average Record
Temperature  
Mean Temperature 62 °F -  
Max Temperature 73 °F 64 °F 78 °F (2002)
Min Temperature 50 °F 42 °F 34 °F (1996)
Degree Days  
Heating Degree Days 4    
Growing Degree Days 12 (Base 50)    
Moisture  
Dew Point 51 °F    
Average Humidity 79    
Maximum Humidity 100    
Minimum Humidity 46    
Precipitation  
Precipitation 0.00 in - - ()
Sea Level Pressure  
Sea Level Pressure 29.85 in    
Wind  
Wind Speed 5 mph (NW)    
Max Wind Speed 18 mph    
Max Gust Speed 26 mph    
Visibility 8 miles    
Events Fog , Rain    
Averages and records for this station are not official NWS values.
T = Trace of Precipitation, MM = Missing Value Source: NWS Daily Summary

Daily Weather History Graph

Daily Weather History Graph

Search for Another Location

Airport or City:

Trip Planner

Search our weather history database for the weather conditions in past years. The results will help you decide how hot, cold, wet, or windy it might be!

Date:

Astronomy

Nov. 10, 2011 Rise Set
Actual Time 6:38 AM EST 5:08 PM EST
Civil Twilight 6:12 AM EST 5:34 PM EST
Nautical Twilight 5:41 AM EST 6:05 PM EST
Astronomical Twilight 5:12 AM EST 6:34 PM EST
Moon 4:57 PM EST (11/10) 6:27 AM EST (11/10)
Length of Visible Light 11h 22m
Length of Day
10h 29m
Full, 100% of the Moon is Illuminated
Nov 10
Full
Nov 10
Full
Nov 18
Last Quarter
Nov 25
New
Dec 2
First Quarter

Hourly Weather History & Observations

Time (EST) Temp. Dew Point Humidity Pressure Visibility Wind Dir Wind Speed Gust Speed Precip Events Conditions
12:56 AM 54.0 °F 53.1 °F 97% 29.95 in 10.0 mi NW 4.6 mph - N/A   Clear
1:56 AM 54.0 °F 54.0 °F 100% 29.93 in 10.0 mi Calm Calm - N/A   Clear
2:56 AM 54.0 °F 53.1 °F 97% 29.91 in 7.0 mi NNW 3.5 mph - N/A   Clear
3:56 AM 53.1 °F 53.1 °F 100% 29.89 in 7.0 mi NNW 3.5 mph - N/A   Clear
4:14 AM 51.8 °F 51.8 °F 100% 29.88 in 7.0 mi NW 4.6 mph - N/A   Partly Cloudy
4:56 AM 54.0 °F 53.1 °F 97% 29.89 in 9.0 mi Calm Calm - N/A   Mostly Cloudy
6:02 AM 51.8 °F 51.8 °F 100% 29.87 in 0.5 mi Calm Calm - N/A Fog Fog
6:17 AM 50.0 °F 50.0 °F 100% 29.87 in 0.2 mi Calm Calm - N/A Fog Fog
6:48 AM 51.8 °F 50.0 °F 94% 29.88 in 0.2 mi Calm Calm - N/A Fog Fog
7:10 AM 50.0 °F 50.0 °F 100% 29.89 in 0.8 mi Calm Calm - N/A   Mist
7:15 AM 50.0 °F 50.0 °F 100% 29.89 in 1.2 mi Calm Calm - N/A   Scattered Clouds
7:27 AM 51.8 °F 51.8 °F 100% 29.89 in 3.0 mi Calm Calm - N/A   Clear
7:56 AM 55.0 °F 54.0 °F 96% 29.90 in 9.0 mi North 4.6 mph - N/A   Clear
9:56 AM 64.9 °F 57.0 °F 75% 29.88 in 10.0 mi NNW 6.9 mph - N/A   Clear
10:56 AM 70.0 °F 55.9 °F 61% 29.86 in 10.0 mi NNW 8.1 mph - N/A   Clear
11:56 AM 71.1 °F 54.0 °F 55% 29.83 in 10.0 mi NNW 8.1 mph - N/A   Clear
12:56 PM 73.0 °F 51.1 °F 46% 29.79 in 10.0 mi NW 11.5 mph - N/A   Clear
1:56 PM 73.0 °F 51.1 °F 46% 29.78 in 10.0 mi NNW 11.5 mph - N/A   Clear
2:56 PM 72.0 °F 52.0 °F 49% 29.76 in 10.0 mi NW 4.6 mph - N/A   Clear
3:56 PM 71.1 °F 54.0 °F 55% 29.75 in 10.0 mi WNW 6.9 mph - N/A   Clear
4:56 PM 66.9 °F 54.0 °F 63% 29.75 in 10.0 mi WNW 5.8 mph - N/A   Partly Cloudy
5:56 PM 64.0 °F 55.9 °F 75% 29.76 in 10.0 mi WSW 5.8 mph - N/A   Overcast
7:56 PM 57.9 °F 48.0 °F 70% 29.80 in 10.0 mi NNW 17.3 mph - N/A   Overcast
8:27 PM 55.4 °F 48.2 °F 77% 29.81 in 10.0 mi NNW 15.0 mph 26.5 mph N/A   Overcast
8:56 PM 55.9 °F 48.9 °F 77% 29.82 in 10.0 mi NNW 11.5 mph - 0.00 in Rain Light Rain
9:09 PM 55.4 °F 48.2 °F 77% 29.81 in 10.0 mi NW 12.7 mph - 0.00 in   Overcast
9:56 PM 55.9 °F 46.9 °F 72% 29.84 in 10.0 mi NW 15.0 mph 23.0 mph 0.00 in   Overcast
10:56 PM 54.0 °F 41.0 °F 62% 29.85 in 10.0 mi NW 18.4 mph - N/A   Mostly Cloudy
11:56 PM 52.0 °F 39.9 °F 63% 29.87 in 10.0 mi NW 16.1 mph - N/A   Clear